YM2KV-13 Weather Reports


time (UTC)temp
C
wind
direction
speed
KPH
gust
KPH
rain 1hr
cm
rain 24hr
cm
rain mn
cm
humidity
%
barometer
mb
20260508101953 27 0.0 0.0 0.00 0.00 0.00 35 1028.4
20260508100953 28 0.0 0.0 0.00 0.00 0.00 35 1028.4
20260508095953 28 0.0 0.0 0.00 0.00 0.00 36 1028.4
20260508094953 27 0.0 0.0 0.00 0.00 0.00 36 1028.5
20260508093953 26 0.0 0.0 0.00 0.00 0.00 38 1028.6
20260508092953 26 0.0 0.0 0.00 0.00 0.00 41 1028.8
20260508091953 27 0.0 0.0 0.00 0.00 0.00 39 1028.9
20260508090953 26 0.0 0.0 0.00 0.00 0.00 41 1028.9
20260508085953 25 0.0 0.0 0.00 0.00 0.00 40 1029.0
20260508084953 26 0.0 0.0 0.00 0.00 0.00 40 1029.0
20260508083953 26 0.0 0.0 0.00 0.00 0.00 41 1029.1
20260508082953 26 0.0 0.0 0.00 0.00 0.00 42 1029.2
20260508081953 25 0.0 0.0 0.00 0.00 0.00 43 1029.3
20260508080953 25 0.0 0.0 0.00 0.00 0.00 45 1029.3
20260508075952 23 0.0 0.0 0.00 0.00 0.00 46 1029.3
20260508074953 22 0.0 0.0 0.00 0.00 0.00 47 1029.4
20260508073952 22 0.0 0.0 0.00 0.00 0.00 48 1029.5
20260508072952 22 0.0 0.0 0.00 0.00 0.00 48 1029.6
20260508071953 21 0.0 0.0 0.00 0.00 0.00 50 1029.6
20260508070952 20 0.0 0.0 0.00 0.00 0.00 51 1029.7
20260508065952 20 0.0 0.0 0.00 0.00 0.00 57 1029.7
20260508064953 18 0.0 0.0 0.00 0.00 0.00 56 1029.7
20260508063952 18 0.0 0.0 0.00 0.00 0.00 60 1029.8
20260508062952 17 0.0 0.0 0.00 0.00 0.00 63 1029.9
20260508061952 16 0.0 0.0 0.00 0.00 0.00 64 1030.0
20260508060952 16 0.0 0.0 0.00 0.00 0.00 66 1030.0
20260508055952 16 0.0 0.0 0.00 0.00 0.00 67 1030.1
20260508054952 15 0.0 0.0 0.00 0.00 0.00 69 1030.1
20260508053952 14 0.0 0.0 0.00 0.00 0.00 73 1030.2
20260508052952 13 0.0 0.0 0.00 0.00 0.00 78 1030.3
20260508051952 12 0.0 0.0 0.00 0.00 0.00 79 1030.4
20260508050952 11 0.0 0.0 0.00 0.00 0.00 82 1030.3
20260508045952 11 0.0 0.0 0.00 0.00 0.00 83 1030.4
20260508044952 10 0.0 0.0 0.00 0.00 0.00 84 1030.4
20260508043952 10 0.0 0.0 0.00 0.00 0.00 86 1030.3
20260508042952 9 0.0 0.0 0.00 0.00 0.00 87 1030.4
20260508041952 8 0.0 0.0 0.00 0.00 0.00 88 1030.4
20260508040952 8 0.0 0.0 0.00 0.00 0.00 88 1030.3
20260508035952 8 0.0 0.0 0.00 0.00 0.00 89 1030.2
20260508034952 7 0.0 0.0 0.00 0.00 0.00 88 1030.1
20260508033952 7 0.0 0.0 0.00 0.00 0.00 89 1030.1
20260508032952 7 0.0 0.0 0.00 0.00 0.00 89 1029.9
20260508031952 7 0.0 0.0 0.00 0.00 0.00 89 1029.8
20260508030952 7 0.0 0.0 0.00 0.00 0.00 90 1029.7
20260508025952 6 0.0 0.0 0.00 0.00 0.00 89 1029.5
20260508024952 6 0.0 0.0 0.00 0.00 0.00 89 1029.5
20260508023952 6 0.0 0.0 0.00 0.00 0.00 89 1029.4
20260508022952 6 0.0 0.0 0.00 0.00 0.00 88 1029.4
20260508021952 7 0.0 0.0 0.00 0.00 0.00 88 1029.5
20260508020952 7 0.0 0.0 0.00 0.00 0.00 88 1029.4
20260508015952 6 0.0 0.0 0.00 0.00 0.00 88 1029.4
20260508014952 7 0.0 0.0 0.00 0.00 0.00 88 1029.5
20260508013952 7 0.0 0.0 0.00 0.00 0.00 87 1029.4
20260508012952 6 0.0 0.0 0.00 0.00 0.00 88 1029.5
20260508011952 7 0.0 0.0 0.00 0.00 0.00 87 1029.5
20260508010952 7 0.0 0.0 0.00 0.00 0.00 86 1029.6
20260508005952 7 0.0 0.0 0.00 0.00 0.00 86 1029.6
20260508004952 7 0.0 0.0 0.00 0.00 0.00 86 1029.7
20260508003952 7 0.0 0.0 0.00 0.00 0.00 87 1029.7
20260508002952 7 0.0 0.0 0.00 0.00 0.00 87 1029.6
20260508001952 7 0.0 0.0 0.00 0.00 0.00 87 1029.7
20260508000952 7 0.0 0.0 0.00 0.00 0.00 88 1029.7
20260507235952 7 0.0 0.0 0.00 0.00 0.00 86 1029.7
20260507234952 7 0.0 0.0 0.00 0.00 0.00 87 1029.7
20260507233952 7 0.0 0.0 0.00 0.00 0.00 87 1029.7
20260507232952 7 0.0 0.0 0.00 0.00 0.00 87 1029.7
20260507231952 7 0.0 0.0 0.00 0.00 0.00 86 1029.7
20260507230952 7 0.0 0.0 0.00 0.00 0.00 86 1029.6
20260507225952 8 0.0 0.0 0.00 0.00 0.00 85 1029.6
20260507224952 8 0.0 0.0 0.00 0.00 0.00 85 1029.5
20260507223952 8 0.0 0.0 0.00 0.00 0.00 85 1029.5
20260507222952 8 0.0 0.0 0.00 0.00 0.00 85 1029.5
20260507221952 8 0.0 0.0 0.00 0.00 0.00 84 1029.5
20260507220952 8 0.0 0.0 0.00 0.00 0.00 84 1029.5
20260507215952 8 0.0 0.0 0.00 0.00 0.00 85 1029.5
20260507214952 8 0.0 0.0 0.00 0.00 0.00 84 1029.5
20260507213952 8 0.0 0.0 0.00 0.00 0.00 83 1029.6
20260507212952 8 0.0 0.0 0.00 0.00 0.00 83 1029.6
20260507211952 8 0.0 0.0 0.00 0.00 0.00 83 1029.5
20260507210952 8 0.0 0.0 0.00 0.00 0.00 83 1029.4
20260507205952 8 0.0 0.0 0.00 0.00 0.00 82 1029.3
20260507204952 8 0.0 0.0 0.00 0.00 0.00 82 1029.4
20260507203952 9 0.0 0.0 0.00 0.00 0.00 81 1029.3
20260507202952 10 0.0 0.0 0.00 0.00 0.00 80 1029.3
20260507201952 10 0.0 0.0 0.00 0.00 0.00 80 1029.2
20260507200952 10 0.0 0.0 0.00 0.00 0.00 80 1029.2
20260507195952 10 0.0 0.0 0.00 0.00 0.00 78 1029.2
20260507194952 10 0.0 0.0 0.00 0.00 0.00 78 1029.3
20260507193952 10 0.0 0.0 0.00 0.00 0.00 78 1029.3
20260507192952 10 0.0 0.0 0.00 0.00 0.00 78 1029.2
20260507191951 10 0.0 0.0 0.00 0.00 0.00 77 1029.2
20260507190952 11 0.0 0.0 0.00 0.00 0.00 76 1029.3
20260507185952 11 0.0 0.0 0.00 0.00 0.00 75 1029.2
20260507184952 11 0.0 0.0 0.00 0.00 0.00 74 1029.2
20260507183952 11 0.0 0.0 0.00 0.00 0.00 75 1029.2
20260507182952 11 0.0 0.0 0.00 0.00 0.00 74 1029.2
20260507181951 12 0.0 0.0 0.00 0.00 0.00 73 1029.1
20260507180951 12 0.0 0.0 0.00 0.00 0.00 72 1029.0
20260507175951 12 0.0 0.0 0.00 0.00 0.00 72 1028.9
20260507174952 12 0.0 0.0 0.00 0.00 0.00 71 1028.8
20260507173951 13 0.0 0.0 0.00 0.00 0.00 70 1028.8
20260507172951 13 0.0 0.0 0.00 0.00 0.00 69 1028.7
20260507171951 13 0.0 0.0 0.00 0.00 0.00 69 1028.7
20260507170952 14 0.0 0.0 0.00 0.00 0.00 68 1028.7
20260507165951 14 0.0 0.0 0.00 0.00 0.00 67 1028.7
20260507164951 15 0.0 0.0 0.00 0.00 0.00 65 1028.7
20260507163951 16 0.0 0.0 0.00 0.00 0.00 63 1028.7
20260507162951 17 0.0 0.0 0.00 0.00 0.00 60 1028.6
20260507161951 18 0.0 0.0 0.00 0.00 0.00 56 1028.6
20260507160951 19 0.0 0.0 0.00 0.00 0.00 55 1028.5
20260507155951 20 0.0 0.0 0.00 0.00 0.00 50 1028.6
20260507154951 21 0.0 0.0 0.00 0.00 0.00 43 1028.6
20260507153951 21 0.0 0.0 0.00 0.00 0.00 40 1028.5
20260507152951 21 0.0 0.0 0.00 0.00 0.00 40 1028.5
20260507151951 21 0.0 0.0 0.00 0.00 0.00 39 1028.5
20260507150951 21 0.0 0.0 0.00 0.00 0.00 36 1028.6
20260507145951 22 0.0 0.0 0.00 0.00 0.00 37 1028.7
20260507144951 22 0.0 0.0 0.00 0.00 0.00 37 1028.7
20260507143951 22 0.0 0.0 0.00 0.00 0.00 37 1028.8
20260507142951 22 0.0 0.0 0.00 0.00 0.00 37 1028.8
20260507141951 22 0.0 0.0 0.00 0.00 0.00 35 1028.9
20260507140951 22 0.0 0.0 0.00 0.00 0.00 36 1028.8
20260507135951 22 0.0 0.0 0.00 0.00 0.00 36 1028.8
20260507134951 22 0.0 0.0 0.00 0.00 0.00 36 1028.7
20260507133951 23 0.0 0.0 0.00 0.00 0.00 38 1028.6
20260507132951 22 0.0 0.0 0.00 0.00 0.00 38 1028.6
20260507131951 22 0.0 0.0 0.00 0.00 0.00 37 1028.6
20260507130951 22 0.0 0.0 0.00 0.00 0.00 35 1028.7
20260507125951 23 0.0 0.0 0.00 0.00 0.00 37 1028.7
20260507124951 23 0.0 0.0 0.00 0.00 0.00 37 1028.8
20260507123951 22 0.0 0.0 0.00 0.00 0.00 38 1028.8
20260507122951 23 0.0 0.0 0.00 0.00 0.00 38 1029.0
20260507121951 24 0.0 0.0 0.00 0.00 0.00 36 1029.0
20260507120951 24 0.0 0.0 0.00 0.00 0.00 37 1029.1
20260507115951 25 0.0 0.0 0.00 0.00 0.00 39 1029.3
20260507114951 24 0.0 0.0 0.00 0.00 0.00 39 1029.3
20260507113951 26 0.0 0.0 0.00 0.00 0.00 40 1029.4
20260507112951 25 0.0 0.0 0.00 0.00 0.00 40 1029.5
20260507111951 25 0.0 0.0 0.00 0.00 0.00 42 1029.5
20260507110951 25 0.0 0.0 0.00 0.00 0.00 41 1029.5
20260507105951 26 0.0 0.0 0.00 0.00 0.00 41 1029.4
20260507104951 26 0.0 0.0 0.00 0.00 0.00 42 1029.5
20260507103951 25 0.0 0.0 0.00 0.00 0.00 44 1029.5
20260507102951 25 0.0 0.0 0.00 0.00 0.00 44 1029.4